Provo, UT

4:53 AM MDT on October 23, 2017 (GMT -0600)
Provo Municipal

Weather History for KPVU - January, 2013

Change the Weather History Date:

Thursday, January 3, 2013

  Actual Average Record
Temperature  
Mean Temperature 3 °F -  
Max Temperature 8 °F 34 °F 48 °F (2012)
Min Temperature -2 °F 21 °F -11 °F (1988)
Degree Days  
Heating Degree Days 62    
Moisture  
Dew Point -1 °F    
Average Humidity 91    
Maximum Humidity 100    
Minimum Humidity 72    
Precipitation  
Precipitation 0.00 in - - ()
Sea Level Pressure  
Sea Level Pressure 30.43 in    
Wind  
Wind Speed 0 mph (SW)    
Max Wind Speed 5 mph    
Max Gust Speed -    
Visibility 5 miles    
Events      
Averages and records for this station are not official NWS values.
T = Trace of Precipitation, MM = Missing Value Source: NWS Daily Summary

Daily Weather History Graph

Daily Weather History Graph

Search for Another Location

Airport or City:

Trip Planner

Search our weather history database for the weather conditions in past years. The results will help you decide how hot, cold, wet, or windy it might be!

Date:

Astronomy

Jan. 03, 2013 Rise Set
Actual Time 7:49 AM MST 5:13 PM MST
Civil Twilight 7:19 AM MST 5:44 PM MST
Nautical Twilight 6:45 AM MST 6:18 PM MST
Astronomical Twilight 6:12 AM MST 6:51 PM MST
Moon 11:53 PM MST (1/3) 11:02 AM MST (1/3)
Length of Visible Light 10h 25m
Length of Day
9h 24m
Waning Gibbous, 65% of the Moon is Illuminated
Jan 3
Waning Gibbous
Jan 4
Last Quarter
Jan 11
New
Jan 18
First Quarter
Jan 26
Full

Hourly Weather History & Observations

Time (MST) Temp. Windchill Dew Point Humidity Pressure Visibility Wind Dir Wind Speed Gust Speed Precip Events Conditions
12:15 AM -0.4 °F - -4.0 °F 85% 30.44 in 5.0 mi Calm Calm - N/A   Clear
12:35 AM -0.4 °F - -2.2 °F 92% 30.44 in 4.0 mi Calm Calm - N/A   Clear
12:55 AM -0.4 °F - -2.2 °F 92% 30.43 in 5.0 mi Calm Calm - N/A   Clear
1:15 AM -0.4 °F - -2.2 °F 92% 30.42 in 5.0 mi Calm Calm - N/A   Clear
1:35 AM -0.4 °F - -2.2 °F 92% 30.42 in 5.0 mi Calm Calm - N/A   Clear
1:55 AM -0.4 °F - -4.0 °F 85% 30.43 in 5.0 mi Calm Calm - N/A   Clear
2:15 AM -0.4 °F - -0.4 °F 100% 30.42 in 5.0 mi Calm Calm - N/A   Partly Cloudy
2:35 AM -2.2 °F - -4.0 °F 92% 30.42 in 5.0 mi Calm Calm - N/A   Mostly Cloudy
2:55 AM -0.4 °F - -0.4 °F 100% 30.42 in 6.0 mi Calm Calm - N/A   Scattered Clouds
3:15 AM -0.4 °F - -7.6 °F 72% 30.43 in 5.0 mi Calm Calm - N/A   Clear
3:35 AM -2.2 °F - -2.2 °F 100% 30.43 in 6.0 mi Calm Calm - N/A   Clear
3:55 AM -2.2 °F - -5.8 °F 85% 30.44 in 5.0 mi Calm Calm - N/A   Clear
4:15 AM -2.2 °F - -2.2 °F 100% 30.44 in 5.0 mi Calm Calm - N/A   Clear
4:35 AM -2.2 °F - -5.8 °F 85% 30.44 in 5.0 mi Calm Calm - N/A   Clear
4:55 AM -2.2 °F - -4.0 °F 92% 30.44 in 5.0 mi Calm Calm - N/A   Clear
5:15 AM -0.4 °F - -2.2 °F 92% 30.44 in 4.0 mi Calm Calm - N/A   Mostly Cloudy
5:35 AM -0.4 °F - -2.2 °F 92% 30.43 in 5.0 mi Calm Calm - N/A   Overcast
5:55 AM 1.4 °F - 1.4 °F 100% 30.43 in 5.0 mi Calm Calm - N/A   Overcast
6:15 AM 3.2 °F - 1.4 °F 92% 30.44 in 7.0 mi Calm Calm - N/A   Overcast
6:35 AM 3.2 °F - 3.2 °F 100% 30.44 in 7.0 mi Calm Calm - N/A   Mostly Cloudy
6:50 AM 3.2 °F - 1.4 °F 92% 30.45 in 8.0 mi Calm Calm - N/A   Overcast
7:50 AM 3.2 °F - 1.4 °F 92% 30.45 in 6.0 mi Calm Calm - N/A   Overcast
8:52 AM -0.4 °F -8.3 °F -0.4 °F 100% 30.46 in 3.0 mi SW 3.5 mph - N/A   Mostly Cloudy
9:50 AM 1.4 °F - -0.4 °F 92% 30.48 in 4.0 mi Calm Calm - N/A   Haze
10:50 AM 3.2 °F - 1.4 °F 92% 30.48 in 6.0 mi Calm Calm - N/A   Haze
11:55 AM 3.2 °F -6.2 °F 3.2 °F 100% 30.46 in 6.0 mi Variable 4.6 mph - N/A   Haze
12:49 PM 6.8 °F -0.1 °F 5.0 °F 92% 30.43 in 6.0 mi Variable 3.5 mph - N/A   Haze
1:47 PM 8.6 °F 2.0 °F 6.8 °F 92% 30.41 in 6.0 mi Variable 3.5 mph - N/A   Haze
2:54 PM 8.6 °F 2.0 °F 6.8 °F 92% 30.42 in 6.0 mi Variable 3.5 mph - N/A   Haze
3:59 PM 8.6 °F 2.0 °F 6.8 °F 92% 30.42 in 6.0 mi Variable 3.5 mph - N/A   Haze
4:55 PM 6.8 °F - 3.2 °F 85% 30.43 in 6.0 mi Calm Calm - N/A   Haze
5:54 PM 6.8 °F - 3.2 °F 85% 30.44 in 6.0 mi Calm Calm - N/A   Haze
6:50 PM 3.2 °F - -0.4 °F 85% 30.44 in 6.0 mi Calm Calm - N/A   Haze
7:55 PM 5.0 °F - 3.2 °F 92% 30.43 in 6.0 mi Calm Calm - N/A   Haze
8:50 PM 1.4 °F - -2.2 °F 85% 30.42 in 6.0 mi Calm Calm - N/A   Haze
9:35 PM 1.4 °F - -2.2 °F 85% 30.42 in 5.0 mi Calm Calm - N/A   Clear
9:55 PM 1.4 °F - -0.4 °F 92% 30.42 in 5.0 mi Calm Calm - N/A   Clear
10:15 PM 1.4 °F - -2.2 °F 85% 30.42 in 5.0 mi Calm Calm - N/A   Clear
10:35 PM -2.2 °F - -5.8 °F 85% 30.42 in 4.0 mi Calm Calm - N/A   Clear
10:55 PM -0.4 °F - -0.4 °F 100% 30.43 in 4.0 mi Calm Calm - N/A   Clear
11:15 PM -0.4 °F - -2.2 °F 92% 30.43 in 2.5 mi Calm Calm - N/A   Clear
11:35 PM -2.2 °F - -5.8 °F 85% 30.43 in 2.5 mi Calm Calm - N/A   Clear
11:55 PM -0.4 °F - -0.4 °F 100% 30.42 in 1.8 mi Calm Calm - N/A   Clear